Location: ??????????
(48.4699°N, 37.9573°E)
Time: 11:46:23
(UTC+00:00)

CZ-4B R/B - Pass Details

Date: 20 January 2021
Orbit: 387 x 458 km, 97.6° (Epoch: 26 February)

Event Time Altitude Azimuth Distance (km) Brightness Sun altitude
Exits shadow 16:34:38 - 348° (NNW) 1,793 4.5 -23.9°
Reaches altitude 10° 16:35:15 10° 342° (NNW) 1,593 4.3 -24.0°
Maximum altitude 16:37:43 19° 295° (WNW) 1,137 4.1 -24.4°
Drops below altitude 10° 16:40:08 10° 249° (WSW) 1,558 5.1 -24.8°
Sets 16:42:31 0° 231° (SW) 2,407 5.9 -25.2°
